Weather History for Jamestown, ND

Change the Weather History Date:

Friday, January 4, 2013

  Actual Average Record
Temperature  
Mean Temperature 17 °F 10 °F  
Max Temperature 29 °F 20 °F 46 °F (2012)
Min Temperature 5 °F 1 °F -34 °F (1968)
Degree Days  
Heating Degree Days 48 55  
Month to date heating degree days 201 218  
Since 1 July heating degree days 3849 3878  
Cooling Degree Days 0 0  
Month to date cooling degree days 0 0  
Year to date cooling degree days 0 0  
Moisture  
Dew Point 10 °F    
Average Humidity 76    
Maximum Humidity 91    
Minimum Humidity 60    
Precipitation  
Precipitation 0.00 in 0.01 in 0.45 in (1949)
Month to date precipitation T 0.06  
Year to date precipitation T 0.06  
Sea Level Pressure  
Sea Level Pressure 30.07 in    
Wind  
Wind Speed 6 mph (West)    
Max Wind Speed 22 mph    
Max Gust Speed 26 mph    
Visibility 8 miles    
Events Fog    
T = Trace of Precipitation, MM = Missing Value Source: NWS Daily Summary

Daily Weather History Graph

Daily Weather History Graph

Search for Another Location

Airport:

Trip Planner

Search our weather history database for the weather conditions in past years. The results will help you decide how hot, cold, wet, or windy it might be!

Date:

Astronomy

Jan. 04, 2013 Rise Set
Actual Time 8:19 AM CST 4:59 PM CST
Civil Twilight 7:44 AM CST 5:34 PM CST
Nautical Twilight 7:06 AM CST 6:13 PM CST
Astronomical Twilight 6:29 AM CST 6:50 PM CST
Moon 12:03 AM CST (1/4) 11:33 AM CST (1/4)
Length of Visible Light 9h 50m
Length of Day
8h 39m
Waning Gibbous, 55% of the Moon is Illuminated
Jan 4
Waning Gibbous
Jan 4
Last Quarter
Jan 11
New
Jan 18
First Quarter
Jan 26
Full

Hourly Weather History & Observations

Time (CST) Temp. Windchill Dew Point Humidity Pressure Visibility Wind Dir Wind Speed Gust Speed Precip Events Conditions
12:56 AM 21.9 °F 7.3 °F 12.0 °F 66% 30.04 in 10.0 mi West 18.4 mph - N/A   Clear
1:56 AM 19.9 °F 11.1 °F 10.9 °F 68% 30.04 in 10.0 mi West 6.9 mph - N/A   Clear
2:56 AM 19.0 °F 7.5 °F 10.9 °F 71% 30.05 in 10.0 mi WNW 10.4 mph - N/A   Clear
3:56 AM 19.0 °F 6.1 °F 10.0 °F 68% 30.05 in 10.0 mi WNW 12.7 mph - N/A   Clear
4:56 AM 19.0 °F 7.5 °F 10.9 °F 71% 30.05 in 10.0 mi WNW 10.4 mph - N/A   Clear
5:56 AM 18.0 °F 4.2 °F 10.0 °F 71% 30.06 in 10.0 mi WNW 13.8 mph - N/A   Clear
6:56 AM 17.1 °F 3.0 °F 10.0 °F 74% 30.07 in 10.0 mi WNW 13.8 mph - N/A   Clear
7:56 AM 18.0 °F 7.7 °F 10.0 °F 71% 30.10 in 10.0 mi West 8.1 mph - N/A   Clear
8:56 AM 16.0 °F 2.9 °F 9.0 °F 74% 30.12 in 10.0 mi West 11.5 mph - N/A   Clear
9:56 AM 18.0 °F 6.9 °F 10.0 °F 71% 30.13 in 10.0 mi WNW 9.2 mph - N/A   Clear
10:56 AM 19.9 °F 10.1 °F 12.0 °F 71% 30.14 in 10.0 mi WNW 8.1 mph - N/A   Clear
11:56 AM 25.0 °F 15.5 °F 15.1 °F 66% 30.12 in 10.0 mi NW 9.2 mph - N/A   Clear
12:56 PM 26.1 °F 18.4 °F 16.0 °F 66% 30.12 in 10.0 mi West 6.9 mph - N/A   Clear
1:56 PM 27.0 °F 21.6 °F 18.0 °F 69% 30.09 in 10.0 mi NNW 4.6 mph - N/A   Clear
2:56 PM 28.0 °F - 18.0 °F 66% 30.09 in 10.0 mi Calm Calm - N/A   Clear
3:56 PM 27.0 °F - 17.1 °F 66% 30.11 in 10.0 mi Calm Calm - N/A   Clear
4:56 PM 18.0 °F - 12.0 °F 78% 30.12 in 10.0 mi Calm Calm - N/A   Clear
5:56 PM 12.9 °F - 9.0 °F 84% 30.12 in 10.0 mi Calm Calm - N/A   Clear
6:56 PM 10.9 °F - 7.0 °F 84% 30.12 in 10.0 mi Calm Calm - N/A   Clear
7:56 PM 9.0 °F 2.4 °F 7.0 °F 92% 30.11 in 7.0 mi SE 3.5 mph - N/A   Clear
8:56 PM 7.0 °F - 5.0 °F 92% 30.09 in 6.0 mi Calm Calm - N/A   Clear
9:31 PM 6.8 °F -2.0 °F 3.2 °F 85% 29.97 in 6.0 mi SE 4.6 mph - N/A   Partly Cloudy
9:56 PM 8.1 °F - 6.1 °F 92% 30.06 in 4.0 mi Calm Calm - N/A   Clear
10:25 PM 10.4 °F -0.4 °F 6.8 °F 85% 29.95 in 1.8 mi SSE 6.9 mph - N/A   Clear
10:33 PM 6.8 °F -0.1 °F 5.0 °F 92% 29.95 in 0.5 mi SSE 3.5 mph - N/A Fog Light Freezing Fog
10:39 PM 5.0 °F -4.1 °F 1.4 °F 85% 29.95 in 3.0 mi SSE 4.6 mph - N/A   Clear
10:56 PM 6.1 °F -4.3 °F 3.9 °F 91% 30.04 in 4.0 mi SSE 5.8 mph - N/A   Clear
11:56 PM 8.1 °F - 5.0 °F 87% 30.03 in 5.0 mi Calm Calm - N/A   Clear